Terug naar catalogus

STARLINK-11223

ActiefCommunicatieVLEO
NORAD 60307·PAYLOAD·🇺🇸 United States

Gelanceerd Jul 28, 2024 vanaf Vandenberg Space Force Base

Loading…

Volgende Passages (komende 24 uur)

TLE

VersSource: CelesTrak SupGP

Epoch: Sep 14, 2026, 21:34 UTC

1 60307C 24133G   26257.89909722 -.00011823  00000+0 -97421-4 0  2577
2 60307  53.1571 293.3057 0001249  81.2221 293.6189 15.69706818    11

Volg STARLINK-11223 in realtime met AllMySat

Download on the App Store